[[{"header":{"parameterUnit":"m.s-1","parameterCategory":1,"la1":30.2991,"la2":30.254,"lo1":-89.0895,"lo2":-89.0444,"dy":0.0017,"dx":0.0017,"nx":28,"ny":28,"refTime":"2024-02-06T03:00:00:Z","depth":0,"parameterNumber":2,"parameterNumberName":"U-component_of_WINDS"},"data":[0,0,0,0,0,0,0,0,0,0,0,0,0,0,0,0,0,0,0,0,0,0,0,0,0,0,0,0,0,0,0,0,0,0,0,0,0,0,0,0,0,0,0,0,0,0,0,0,0,0,0,0,0,0,0,0,0,0,1.6177,1.6176,0,1.6158,1.6158,1.6158,1.612,1.6119,1.6118,1.6117,1.6099,1.6099,1.61,0,0,0,0,0,0,0,0,0,0,0,0,0,1.6179,1.6179,1.6177,1.6176,1.6176,1.6158,1.6158,1.6158,1.612,1.6119,1.6118,1.6117,1.6099,1.6099,1.61,0,0,0,0,0,0,0,0,0,0,0,0,0,1.6171,1.6179,1.6177,1.6155,1.6153,1.6158,1.6158,1.6158,1.612,1.6119,1.6118,1.6117,1.6099,1.6099,1.61,1.6125,0,0,1.6101,1.6101,0,0,0,0,0,0,0,0,1.6172,1.6171,1.6158,1.6156,1.6154,1.614,1.6152,1.6147,1.612,1.6132,1.6117,1.6116,1.6114,1.6113,1.6112,1.6124,1.6124,1.6101,1.6101,1.6101,1.6101,0,0,0,0,0,0,0,1.6172,1.6172,1.6169,1.6158,1.6156,1.6146,1.6144,1.6151,1.613,1.6131,1.6128,1.6127,1.6112,1.6112,1.6111,1.6123,1.6101,1.6101,1.6101,1.6102,1.6156,1.6157,0,0,0,0,0,0,1.6176,1.6172,1.617,1.6169,1.616,1.6147,1.6145,1.6146,1.613,1.6126,1.6128,1.6125,1.6112,1.6111,1.6111,1.6139,1.6101,1.6102,1.6102,1.6154,1.6156,1.6157,0,0,0,0,0,0,1.6176,1.6176,1.6171,1.617,1.6168,1.6148,1.615,1.6146,1.6145,1.6127,1.6123,1.6131,1.6111,1.611,1.6122,1.6138,1.6102,1.6102,1.6153,1.6155,1.6156,1.6196,0,0,0,0,0,0,1.6176,1.6176,1.6186,1.617,1.6169,1.6182,1.6151,1.6146,1.6146,1.6142,1.6129,1.6126,1.611,1.6121,1.6122,1.6138,1.6102,1.6151,1.6154,1.6156,1.6194,1.6199,1.6204,0,0,0,0,0,1.6177,1.6198,1.6186,1.6186,1.618,1.6183,1.6182,1.6163,1.6147,1.6157,1.6145,1.6126,1.6136,1.6123,1.6123,1.6139,1.615,1.6153,1.6156,1.6191,1.6198,1.6204,0,0,0,0,0,0,1.6215,1.6195,1.6182,1.6199,1.6193,1.6177,1.6188,1.6171,1.617,1.6166,1.6143,1.6141,1.6156,1.6149,1.6134,1.6163,1.614,1.6143,1.6167,1.6174,1.6179,1.618,1.6103,0,0,0,0,0,1.6226,1.623,1.6212,1.6229,1.6227,1.6208,1.6209,1.6195,1.6187,1.6185,1.6174,1.6168,1.617,1.6171,1.6172,1.6193,1.6189,1.6204,1.6209,1.6214,1.6216,1.6227,1.6233,1.6166,1.6166,1.6166,0,0,1.6248,1.6237,1.6241,1.6236,1.623,1.6235,1.6206,1.6212,1.6216,1.6186,1.6196,1.6188,1.618,1.6196,1.6203,1.6191,1.6234,1.6217,1.6221,1.6221,1.623,1.6237,1.6242,1.6168,1.6168,1.6167,0,0,1.629,1.6283,1.6295,1.629,1.628,1.6268,1.6271,1.6257,1.625,1.626,1.6238,1.6242,1.6246,1.6241,1.6239,1.6279,1.6262,1.628,1.6308,1.6319,1.6324,1.6328,1.6343,1.6348,1.6283,1.6283,1.6283,0,1.6318,1.6325,1.6304,1.6312,1.6311,1.6284,1.6296,1.6292,1.6284,1.6283,1.627,1.6274,1.6267,1.6281,1.6291,1.6291,1.6294,1.6281,1.6325,1.6329,1.6333,1.6346,1.6352,1.6286,1.6285,1.6285,1.6285,0,1.636,1.6365,1.6376,1.6369,1.6368,1.6379,1.636,1.6363,1.6349,1.6338,1.6349,1.6339,1.6337,1.634,1.6326,1.6353,1.6345,1.6329,1.6305,1.6342,1.6354,1.6359,1.6289,1.6288,1.6287,1.6287,0,0,1.6425,1.6406,1.6411,1.6407,1.6395,1.6399,1.6408,1.6406,1.6409,1.6404,1.6411,1.6415,1.64,1.6398,1.6384,1.6393,1.6426,1.6375,1.6375,1.6384,1.6454,1.6466,1.6472,1.6414,1.6415,1.6416,1.6454,0,1.6465,1.6479,1.6461,1.648,1.6484,1.6459,1.6467,1.6461,1.6451,1.6453,1.6442,1.6445,1.6425,1.6423,1.6431,1.642,1.6439,1.6417,1.6421,1.6421,1.6423,1.6478,1.6491,1.6528,1.6459,1.646,1.646,0,1.6512,1.6509,1.6528,1.6515,1.6516,1.6524,1.6521,1.6523,1.6516,1.6508,1.6506,1.6489,1.6497,1.6475,1.6486,1.6472,1.6472,1.6467,1.6468,1.6467,1.6442,1.6479,1.6539,1.6544,1.6468,1.6467,1.6466,0,1.6558,1.6559,1.657,1.6568,1.6553,1.6559,1.6553,1.6544,1.6544,1.6542,1.6542,1.654,1.6539,1.6539,1.6522,1.6507,1.6536,1.6512,1.6529,1.653,1.6536,1.6535,1.6597,1.6537,1.6537,1.6537,1.6537,0,1.6603,1.6616,1.6591,1.6598,1.6611,1.6591,1.6605,1.6596,1.6589,1.6594,1.6572,1.6577,1.6555,1.6558,1.6545,1.6556,1.6556,1.655,1.6547,1.6552,1.6553,1.6552,1.6548,1.6538,1.6538,1.6538,1.6538,0,1.6656,1.664,1.6651,1.6636,1.6632,1.6643,1.663,1.6636,1.6625,1.6632,1.6632,1.6614,1.6617,1.66,1.66,1.6591,1.6608,1.6601,1.6611,1.6608,1.6626,1.6625,1.6688,1.6696,1.6632,1.6633,1.6633,0,1.6686,1.6695,1.6681,1.6683,1.6678,1.6681,1.6681,1.6661,1.6662,1.6654,1.6661,1.6662,1.6661,1.6666,1.6653,1.6653,1.6644,1.6667,1.6644,1.6649,1.6644,1.6644,1.6644,1.6671,1.6672,1.6673,1.6673,0,1.674,1.6732,1.6732,1.673,1.6731,1.6728,1.6724,1.6727,1.6705,1.6707,1.6709,1.6709,1.6708,1.6709,1.6706,1.67,1.6683,1.6681,1.6685,1.669,1.6695,1.6692,1.6623,1.6679,1.6679,1.6678,1.6678,1.6678,1.6782,1.6789,1.678,1.6781,1.6776,1.6773,1.6778,1.6767,1.6769,1.6766,1.6755,1.6759,1.6751,1.6745,1.6741,1.6744,1.6733,1.6739,1.6741,1.6742,1.6745,1.6695,1.6744,1.6744,1.6743,1.6743,1.6743,0,1.6835,1.6828,1.683,1.6825,1.6826,1.681,1.6805,1.6807,1.681,1.6805,1.6804,1.6807,1.6808,1.6795,1.6794,1.6799,1.6791,1.68,1.6799,1.6798,1.6755,1.6752,1.6806,1.6806,1.6806,1.6806,1.6806,1.6806,1.6863,1.6873,1.6864,1.6872,1.6865,1.6869,1.6867,1.6864,1.6859,1.6863,1.6863,1.6855,1.6846,1.6845,1.6845,1.6841,1.6842,1.6852,1.6846,1.6807,1.6801,1.6795,1.6791,1.6853,1.6853,1.6888,1.6888,1.6889]},{"header":{"parameterUnit":"m.s-1","parameterCategory":1,"la1":30.2991,"la2":30.254,"lo1":-89.0895,"lo2":-89.0444,"dy":0.0017,"dx":0.0017,"nx":28,"ny":28,"refTime":"2024-02-06T03:00:00:Z","depth":0,"parameterNumber":3,"parameterNumberName":"V-component_of_WINDS"},"data":[0,0,0,0,0,0,0,0,0,0,0,0,0,0,0,0,0,0,0,0,0,0,0,0,0,0,0,0,0,0,0,0,0,0,0,0,0,0,0,0,0,0,0,0,0,0,0,0,0,0,0,0,0,0,0,0,0,0,-2.8933,-2.8933,0,-2.8937,-2.8937,-2.8937,-2.8896,-2.8895,-2.8894,-2.8893,-2.8897,-2.8899,-2.89,0,0,0,0,0,0,0,0,0,0,0,0,0,-2.8894,-2.8895,-2.8933,-2.8933,-2.8933,-2.8937,-2.8937,-2.8937,-2.8897,-2.8895,-2.8894,-2.8893,-2.8897,-2.8898,-2.89,0,0,0,0,0,0,0,0,0,0,0,0,0,-2.8905,-2.8895,-2.8933,-2.8913,-2.8912,-2.8937,-2.8937,-2.8937,-2.8897,-2.8895,-2.8894,-2.8892,-2.8897,-2.8898,-2.89,-2.8944,0,0,-2.8905,-2.8906,0,0,0,0,0,0,0,0,-2.8905,-2.8907,-2.8916,-2.8915,-2.8913,-2.8914,-2.8924,-2.8939,-2.8897,-2.8903,-2.8893,-2.8891,-2.8904,-2.8905,-2.891,-2.8944,-2.8944,-2.8905,-2.8907,-2.8907,-2.8908,0,0,0,0,0,0,0,-2.8904,-2.8907,-2.8934,-2.8916,-2.8914,-2.8905,-2.8905,-2.8927,-2.8913,-2.8902,-2.8899,-2.89,-2.8903,-2.8908,-2.891,-2.8945,-2.8905,-2.8907,-2.8908,-2.8909,-2.902,-2.9021,0,0,0,0,0,0,-2.8906,-2.8906,-2.8934,-2.8934,-2.8905,-2.8908,-2.8907,-2.8916,-2.8912,-2.891,-2.8901,-2.8898,-2.8906,-2.8908,-2.891,-2.8963,-2.8907,-2.8909,-2.891,-2.9018,-2.902,-2.9022,0,0,0,0,0,0,-2.8905,-2.8908,-2.8934,-2.892,-2.8922,-2.891,-2.892,-2.8917,-2.8921,-2.8912,-2.8909,-2.8909,-2.8905,-2.8907,-2.8937,-2.8963,-2.891,-2.8911,-2.9015,-2.9018,-2.9021,-2.907,0,0,0,0,0,0,-2.8904,-2.8908,-2.8924,-2.892,-2.8923,-2.896,-2.8921,-2.8918,-2.8925,-2.892,-2.8919,-2.8917,-2.8904,-2.8934,-2.8939,-2.8964,-2.8913,-2.9013,-2.9017,-2.902,-2.9066,-2.9074,-2.9081,0,0,0,0,0,-2.8903,-2.8937,-2.8925,-2.8929,-2.8942,-2.8962,-2.8963,-2.8948,-2.8927,-2.8943,-2.8938,-2.8917,-2.896,-2.8938,-2.8942,-2.8969,-2.9011,-2.9016,-2.902,-2.9063,-2.9073,-2.9081,0,0,0,0,0,0,-2.8943,-2.8936,-2.8923,-2.8956,-2.896,-2.8955,-2.8975,-2.8958,-2.8968,-2.8964,-2.8944,-2.8944,-2.8978,-2.8976,-2.8952,-2.9013,-2.8982,-2.8987,-2.9013,-2.9022,-2.903,-2.903,-2.8914,0,0,0,0,0,-2.8956,-2.8972,-2.8965,-2.8996,-2.8998,-2.8987,-2.8994,-2.8983,-2.8986,-2.8987,-2.8983,-2.8988,-2.9002,-2.9012,-2.9025,-2.9066,-2.9066,-2.9087,-2.9095,-2.9101,-2.9106,-2.9131,-2.914,-2.9036,-2.9036,-2.9036,0,0,-2.8983,-2.8981,-2.8992,-2.9004,-2.9005,-2.9024,-2.8988,-2.9008,-2.9022,-2.899,-2.9018,-2.9016,-2.902,-2.9056,-2.9072,-2.9056,-2.9135,-2.9106,-2.9111,-2.9113,-2.9136,-2.9146,-2.9155,-2.9039,-2.9039,-2.9038,0,0,-2.9041,-2.9041,-2.9067,-2.907,-2.9074,-2.9066,-2.9073,-2.9071,-2.9069,-2.9097,-2.9075,-2.9091,-2.9116,-2.9121,-2.9126,-2.9191,-2.9173,-2.9196,-2.9236,-2.926,-2.9268,-2.9275,-2.9301,-2.931,-2.9201,-2.9201,-2.9201,0,-2.9074,-2.91,-2.9083,-2.9106,-2.9113,-2.9086,-2.9115,-2.9118,-2.9126,-2.9132,-2.9114,-2.9147,-2.9148,-2.9186,-2.9203,-2.9207,-2.9216,-2.9196,-2.9268,-2.9275,-2.9282,-2.9306,-2.9315,-2.9204,-2.9204,-2.9203,-2.9203,0,-2.9141,-2.916,-2.9181,-2.9191,-2.92,-2.9225,-2.9214,-2.9226,-2.9215,-2.921,-2.9241,-2.9241,-2.9255,-2.9263,-2.9251,-2.9301,-2.9292,-2.9272,-2.9239,-2.9295,-2.9317,-2.9326,-2.9208,-2.9207,-2.9206,-2.9205,0,0,-2.9223,-2.9225,-2.9233,-2.9239,-2.9242,-2.9257,-2.9282,-2.9296,-2.9308,-2.9315,-2.9338,-2.9361,-2.9344,-2.935,-2.9339,-2.9361,-2.9415,-2.9338,-2.9338,-2.9354,-2.9474,-2.9489,-2.95,-2.9404,-2.9405,-2.9406,-2.9474,0,-2.9281,-2.9324,-2.9312,-2.9355,-2.9374,-2.9351,-2.9374,-2.938,-2.9377,-2.9393,-2.939,-2.9408,-2.9382,-2.9387,-2.9407,-2.9404,-2.9439,-2.9399,-2.9425,-2.9427,-2.9426,-2.9511,-2.9527,-2.959,-2.9482,-2.9484,-2.9485,0,-2.9353,-2.9365,-2.9411,-2.9415,-2.9422,-2.9443,-2.9457,-2.9472,-2.9479,-2.9476,-2.9486,-2.9471,-2.9499,-2.9467,-2.9506,-2.9479,-2.9489,-2.949,-2.9492,-2.9494,-2.9459,-2.9517,-2.961,-2.962,-2.9498,-2.9497,-2.9496,0,-2.9411,-2.9438,-2.9469,-2.9474,-2.9479,-2.9495,-2.9497,-2.9503,-2.9513,-2.9526,-2.9533,-2.9549,-2.9558,-2.9571,-2.9562,-2.954,-2.9604,-2.957,-2.9603,-2.9603,-2.9617,-2.9616,-2.9714,-2.9623,-2.9622,-2.9622,-2.9622,0,-2.9477,-2.9507,-2.9496,-2.9515,-2.9549,-2.9536,-2.957,-2.957,-2.9576,-2.9596,-2.9577,-2.9597,-2.9584,-2.9604,-2.9597,-2.9632,-2.9635,-2.9635,-2.9633,-2.9637,-2.9637,-2.9643,-2.9639,-2.9625,-2.9624,-2.9624,-2.9623,0,-2.9546,-2.954,-2.9573,-2.9576,-2.9578,-2.9602,-2.9605,-2.9625,-2.9622,-2.9648,-2.9654,-2.9649,-2.9672,-2.9665,-2.9688,-2.9684,-2.9729,-2.9721,-2.9726,-2.9725,-2.9758,-2.9756,-2.9864,-2.9879,-2.9777,-2.9778,-2.9779,0,-2.9589,-2.9612,-2.9618,-2.9631,-2.9635,-2.9655,-2.9667,-2.9656,-2.9669,-2.9681,-2.97,-2.9721,-2.9737,-2.9774,-2.9774,-2.9793,-2.9786,-2.9823,-2.9788,-2.9793,-2.9788,-2.9787,-2.9791,-2.9829,-2.983,-2.9831,-2.9832,0,-2.9667,-2.9664,-2.9681,-2.9698,-2.9713,-2.9725,-2.9737,-2.9748,-2.9739,-2.9755,-2.9778,-2.9791,-2.9817,-2.9838,-2.9857,-2.9861,-2.9846,-2.9843,-2.9852,-2.9857,-2.986,-2.9861,-2.9746,-2.9841,-2.984,-2.9839,-2.9839,-2.9838,-2.9725,-2.9746,-2.9754,-2.9775,-2.9783,-2.9794,-2.9814,-2.9814,-2.9833,-2.9854,-2.9847,-2.9874,-2.9884,-2.9907,-2.9914,-2.9936,-2.9922,-2.9934,-2.9938,-2.9941,-2.9946,-2.9856,-2.9939,-2.9939,-2.9939,-2.9939,-2.9938,0,-2.9804,-2.9809,-2.9828,-2.9845,-2.9863,-2.9848,-2.9861,-2.9876,-2.9901,-2.9911,-2.9928,-2.9957,-2.9979,-2.9982,-3.0003,-3.0021,-3.0015,-3.0027,-3.0026,-3.0028,-2.9957,-2.9948,-3.0032,-3.0032,-3.0032,-3.0032,-3.0032,-3.0032,-2.9846,-2.9881,-2.9879,-2.9919,-2.9923,-2.995,-2.9959,-2.9971,-2.998,-3.0013,-3.0032,-3.0033,-3.0042,-3.0064,-3.0085,-3.0085,-3.0095,-3.011,-3.0108,-3.0042,-3.0032,-3.0023,-3.0015,-3.0112,-3.0112,-3.0177,-3.0178,-3.0178]}]]